AirNav   ProFlight Series 2 Aviation Headset
 
 826 users online  

7CA1 Abraham Ranch Airport
Lucerne Valley, California, USA

GOING TO LUCERNE VALLEY?


FAA INFORMATION EFFECTIVE 13 AUGUST 2020

Location

FAA Identifier: 7CA1
Lat/Long: 34-24-52.9990N 116-37-21.0850W
34-24.883317N 116-37.351417W
34.4147219,-116.6225236
(estimated)
Elevation: 2850 ft. / 869 m (estimated)
Variation: 14E (1985)
From city: 16 miles SE of LUCERNE VALLEY, CA
Time zone: UTC -7 (UTC -8 during Standard Time)
Zip code: 92285

Airport Operations

Airport use: Private use. Permission required prior to landing
Activation date: 10/1978
Control tower: no
ARTCC: LOS ANGELES CENTER
FSS: RIVERSIDE FLIGHT SERVICE STATION
Attendance: UNATNDD
Wind indicator: yes
Segmented circle: no

Airport Communications

WX AWOS-3 at L35 (15 nm SW): 135.925 (909-585-4033)
  • UNICOM 123.500.

Nearby radio navigation aids

VOR radial/distance  VOR name  Freq  Var
HECr184/24.3HECTOR VORTAC112.7015E
DAGr169/32.9DAGGETT VORTAC113.2015E
PSPr331/34.1PALM SPRINGS VORTAC115.5013E
VCVr092/39.4VICTORVILLE VOR/DME109.0514E

Airport Services

Runway Information

Runway 9/27

Dimensions: 4000 x 75 ft. / 1219 x 23 m
Surface: dirt
RUNWAY 9  RUNWAY 27
Traffic pattern: rightleft

Airport Ownership and Management from official FAA records

Ownership: Privately-owned
Owner: HAROLD W ABRAHAM
455 BELLE BREEZE PL
GALLATIN, TN 37066
Phone (516) 609-6019
Manager: JOHN KING
2537 PACIFIC COAST HWY, 221D
TORRANCE , CA 90505
Phone (310) 994-8756

Airport Operational Statistics

Aircraft based on the field: 4
Single engine airplanes: 2
Multi engine airplanes: 2
    

Additional Remarks

FOR CD CTC LOS ANGELES ARTCC AT 661-575-2079.

Instrument Procedures

There are no published instrument procedures at 7CA1.

Some nearby airports with instrument procedures:

L35 - Big Bear City Airport (15 nm SW)
KDAG - Barstow-Daggett Airport (28 nm N)
KAPV - Apple Valley Airport (29 nm W)
KREI - Redlands Municipal Airport (33 nm SW)
KPSP - Palm Springs International Airport (36 nm S)
 
Loc | Ops | Rwys | IFR | FBO | Links
Com | Nav | Svcs | Stats | Notes

San Bernardino International Airport Authority
 
Area around 7CA1 (Abraham Ranch Airport)
 
Road maps at: MapQuest Bing Google
 
Aerial photo
WARNING: Photo may not be current or correct
Aerial photo of 7CA1 (Abraham Ranch Airport)
Photo by John King

Do you have a better or more recent aerial photo of Abraham Ranch Airport that you would like to share? If so, please send us your photo.

 
Sectional chart

 
Airport distance calculator
Flying to Abraham Ranch Airport? Find the distance to fly.

From to 7CA1

Sunrise and sunset
Times for 13-Aug-2020
 Local
(UTC-7)
 Zulu
(UTC)
Morning civil twilight05:4112:41
Sunrise06:0813:08
Sunset19:3502:35
Evening civil twilight20:0103:01

Current date and time
Zulu (UTC)  13-Aug-2020 12:15:16
Local (UTC-7)  13-Aug-2020 05:15:16
 
METAR
KL35 
15nm SW 
131155Z AUTO 00000KT 10SM BKN120 15/06 A3030 RMK AO2
KNXP 
24nm E 
131156Z AUTO 29010KT 10SM CLR 31/01 A2998 RMK AO2 SLP109 T03060006 10333 20300 53003
KDAG 
27nm N 
131150Z AUTO 26010KT 10SM CLR 28/01 A2992 RMK AO2 SLP099 T02780011 10333 20278 53001
TAF
KNXP 
24nm E 
1309/1409 30011KT 9999 SKC QNH2995INS BECMG 1316/1308 VRB05KT 9999 SKC QNH2995INS T41/1222Z T26/1313Z
KDAG 
27nm N 
131120Z 1312/1412 27010KT P6SM BKN130 BKN200 FM132000 31009KT P6SM BKN120 BKN200 FM140200 26010KT P6SM SCT150 BKN250
NOTAMs
Click for the latest NOTAMs
NOTAMs are issued by the DoD/FAA and will open in a separate window not controlled by AirNav.

 

 
 

Would you like to see your business listed on this page?

 If your business provides an interesting product or service to pilots, flight crews, aircraft, or users of the Abraham Ranch Airport, you should consider listing it here.  To start the listing process, click on the button below
 
Add a business
 

Other Pages about Abraham Ranch Airport

Update a link
 
Copyright © AirNav, LLC. All rights reserved. Privacy Policy  Contact